THORAD DELTA 1 DEB, 8301

Orbit data source: Space-Track

THORAD DELTA 1 DEB, 8301 is space debris in SSO originally from a launch on Fri, 15 Nov 1974 UTC launched from the Air Force Western Test Range (AFWTR). Debris objects in space refer to the collection of defunct objects orbiting the Earth. Examples of debris include non-operational satellites, rocket bodies, and fragments generated from explosions, collisions, or faulty payload assembly.

Loading next visibility...
Identifier
8301, 1974-089BJ
Orbit
SSO
Country
Flag of USUS
Related business
Manufacturer
Unknown
Mission
Spacecraft
Bus & Motor
Unknown
Mass
Unknown
Launch date (UTC)
1974-11-15 (51 years ago)
Launch vehicle
Unknown
Launch site
Air Force Western Test Range (AFWTR)
Object type
Payload
Rocket body
Debris
Shape & HBR
Unknown shape, 0.1 m
Radar Cross Section
Small (<0.1 m²)

Expand to show TLE details & history
Last TLE update: 10 hours ago

TLE from 10 hours ago
0 THORAD DELTA 1 DEB
1 08301U 74089BJ  25289.55835076  .00066602  00000-0  11776-1 0  9998
2 08301 102.9310 288.4467 0128052 287.4238  71.2979 14.61781985512868
Epoch: 2025-10-16T13:24Z
TLE epoch observation values (Epoch: 2025-10-16T13:24:01.505Z)
Latitude
-0.00001°
Longitude
62.12408°
Altitude
662.258 km
Speed
7.541 km/s
True Right ascension
19h 13m 47s
True Declination
0° 00' 00"
Sunlit
Object was in daylight at epoch
Visualization orbit readout
Latitude
Unknown
Longitude
Unknown
Altitude
Unknown
Speed
Unknown
Apparent Right ascension
Unknown
Apparent Declination
Unknown
Sunlit
N/A
Visualization observer readout
Local Sidereal Time
18:31:05
Azimuth
Unknown
Elevation
Unknown
Doppler factor
Unknown
Orbital elements
Apogee altitude
775.224 km
Perigee altitude
594.34 km
Semi-major axis
7,062.919 km
Eccentricity
0.01281
Inclination
102.931°
RAAN
288.4467°
Arg. of periapsis
287.4238°
True anomaly
72.69482°
Mean anomaly
71.2979°
Eccentric anomaly
71.99566°
Mean motion
3.65651 °/min
Orbital period
98.45 mins
BSTAR
0.011776
Loading maneuver chart data...
Computing Atmospheric mass density...

Documentation

Showing up to 5 results
|